Station Historical Data
Daily Summary for September 3, 2017 Units:  Metric    English   Both
« Previous Day
Next Day »
Daily Weekly Monthly Yearly Custom
  High: Low: Average:
Temperature: 27.1 °C 15 °C 20.8 °C
Dew Point: 17.8 °C 13.6 °C 15.4 °C
Humidity: 92% 46% 74%
Wind Speed: 3.2km/h 0km/h 0.2km/h
Wind Gust: 8km/h - -
Wind- - SW
Pressure: 1021.2 hPa 1018.8 hPa -
Precipitation: 0 mm    
Historical Graphs
 
 
Tabular Data for September 3, 2017
Time Temperature Dew Point Pressure Wind Wind Speed Wind Gust Humidity Rainfall Rate (Hourly) Conditions
00:00 18 °C 15.8 °C 1019.5 hPa Calm     87% 0 mm CLR
00:05 17.9 °C 15.7 °C 1019.5 hPa Calm     87% 0 mm CLR
00:10 17.9 °C 15.5 °C 1019.5 hPa Calm     86% 0 mm CLR
00:15 17.8 °C 15.4 °C 1019.5 hPa Calm     86% 0 mm CLR
00:20 17.8 °C 15.4 °C 1019.5 hPa Calm     86% 0 mm CLR
00:25 17.8 °C 15.6 °C 1019.5 hPa Calm     87% 0 mm CLR
00:30 17.8 °C 15.4 °C 1019.5 hPa Calm     86% 0 mm CLR
00:35 17.7 °C 15.6 °C 1019.5 hPa Calm     87% 0 mm CLR
00:40 17.8 °C 15.6 °C 1019.5 hPa Calm     87% 0 mm CLR
00:50 17.7 °C 15.3 °C 1019.5 hPa Calm     86% 0 mm CLR
00:55 17.7 °C 15.5 °C 1019.2 hPa Calm     87% 0 mm CLR
01:00 17.7 °C 15.5 °C 1019.2 hPa Calm     87% 0 mm CLR
01:10 17.7 °C 15.5 °C 1019.2 hPa Calm     87% 0 mm CLR
01:15 17.7 °C 15.5 °C 1019.2 hPa Calm     87% 0 mm CLR
01:20 17.6 °C 15.4 °C 1019.2 hPa Calm     87% 0 mm CLR
01:25 17.6 °C 15.4 °C 1019.2 hPa Calm     87% 0 mm CLR
01:30 17.5 °C 15.3 °C 1019.2 hPa Calm     87% 0 mm CLR
01:40 17.4 °C 15.4 °C 1019.2 hPa Calm     88% 0 mm CLR
01:45 17.3 °C 15.3 °C 1019.2 hPa Calm     88% 0 mm CLR
01:50 17.2 °C 15.2 °C 1018.8 hPa Calm     88% 0 mm CLR
01:55 17.2 °C 15.2 °C 1018.8 hPa Calm   1.6 km/h 88% 0 mm CLR
02:00 17.3 °C 15.3 °C 1018.8 hPa Calm   1.6 km/h 88% 0 mm CLR
02:05 17.3 °C 15.3 °C 1018.8 hPa Calm     88% 0 mm CLR
02:10 17.3 °C 15.2 °C 1018.8 hPa Calm     87% 0 mm CLR
02:15 17.3 °C 15.1 °C 1018.8 hPa Calm     87% 0 mm CLR
02:20 17.2 °C 15.1 °C 1018.8 hPa Calm   1.6 km/h 87% 0 mm CLR
02:25 17.3 °C 15.1 °C 1018.8 hPa Calm   1.6 km/h 87% 0 mm CLR
02:30 17.3 °C 15.1 °C 1018.8 hPa Calm   1.6 km/h 87% 0 mm CLR
02:35 17.3 °C 15.1 °C 1018.8 hPa Calm     87% 0 mm CLR
02:40 17.2 °C 15.1 °C 1018.8 hPa Calm     87% 0 mm CLR
02:45 17.2 °C 15.2 °C 1018.8 hPa Calm     88% 0 mm CLR
02:50 17.1 °C 15.1 °C 1018.8 hPa Calm     88% 0 mm CLR
02:55 17 °C 15 °C 1018.8 hPa Calm     88% 0 mm CLR
03:00 16.9 °C 14.9 °C 1018.8 hPa Calm     88% 0 mm CLR
03:10 17 °C 15.2 °C 1018.8 hPa Calm     89% 0 mm CLR
03:15 17 °C 15 °C 1018.8 hPa Calm     88% 0 mm CLR
03:20 17.1 °C 15.1 °C 1018.8 hPa Calm     88% 0 mm CLR
03:25 17 °C 15 °C 1018.8 hPa Calm     88% 0 mm CLR
03:30 16.9 °C 14.9 °C 1018.8 hPa Calm     88% 0 mm CLR
03:35 16.9 °C 14.9 °C 1018.8 hPa Calm     88% 0 mm CLR
03:40 16.8 °C 14.8 °C 1018.8 hPa Calm     88% 0 mm CLR
03:45 16.7 °C 14.7 °C 1018.8 hPa Calm     88% 0 mm CLR
03:50 16.7 °C 14.8 °C 1018.8 hPa Calm     89% 0 mm CLR
03:55 16.7 °C 14.8 °C 1018.8 hPa Calm     89% 0 mm CLR
04:00 16.6 °C 14.8 °C 1018.8 hPa Calm     89% 0 mm CLR
04:10 16.5 °C 14.7 °C 1018.8 hPa Calm     89% 0 mm CLR
04:15 16.4 °C 14.6 °C 1019.2 hPa Calm     89% 0 mm CLR
04:20 16.4 °C 14.6 °C 1019.2 hPa Calm     89% 0 mm CLR
04:25 16.3 °C 14.5 °C 1019.2 hPa Calm     89% 0 mm CLR
04:30 16.3 °C 14.5 °C 1019.2 hPa Calm     89% 0 mm CLR
04:35 16.3 °C 14.4 °C 1019.2 hPa Calm     89% 0 mm CLR
04:40 16.2 °C 14.4 °C 1019.2 hPa Calm     89% 0 mm CLR
04:45 16.2 °C 14.3 °C 1019.2 hPa Calm     89% 0 mm CLR
04:50 16.2 °C 14.3 °C 1019.2 hPa Calm     89% 0 mm CLR
04:55 16.1 °C 14.3 °C 1019.2 hPa Calm     89% 0 mm CLR
05:00 16.1 °C 14.4 °C 1019.2 hPa Calm     90% 0 mm CLR
05:10 16.1 °C 14.3 °C 1019.2 hPa Calm     89% 0 mm CLR
05:15 16 °C 14.2 °C 1019.2 hPa Calm     89% 0 mm CLR
05:20 15.9 °C 14.1 °C 1019.2 hPa Calm     89% 0 mm CLR
05:25 15.9 °C 14.3 °C 1019.2 hPa Calm     90% 0 mm CLR
05:30 15.9 °C 14.3 °C 1019.2 hPa Calm     90% 0 mm CLR
05:35 15.9 °C 14.3 °C 1019.2 hPa Calm     90% 0 mm CLR
05:40 15.9 °C 14.3 °C 1019.2 hPa Calm     90% 0 mm CLR
05:45 15.9 °C 14.2 °C 1019.2 hPa Calm     90% 0 mm CLR
05:50 15.8 °C 14.2 °C 1019.5 hPa Calm     90% 0 mm CLR
05:55 15.8 °C 14.2 °C 1019.5 hPa Calm     90% 0 mm CLR
06:00 15.7 °C 14.1 °C 1019.5 hPa Calm     90% 0 mm CLR
06:05 15.7 °C 14.1 °C 1019.5 hPa Calm     90% 0 mm CLR
06:10 15.6 °C 14 °C 1019.5 hPa Calm     90% 0 mm CLR
06:15 15.6 °C 13.9 °C 1019.5 hPa Calm     90% 0 mm CLR
06:20 15.5 °C 13.9 °C 1019.5 hPa Calm     90% 0 mm CLR
06:25 15.4 °C 13.8 °C 1019.5 hPa Calm     90% 0 mm CLR
06:30 15.3 °C 13.7 °C 1019.5 hPa Calm     90% 0 mm CLR
06:35 15.3 °C 13.8 °C 1019.9 hPa Calm     91% 0 mm CLR
06:40 15.2 °C 13.8 °C 1019.9 hPa Calm     91% 0 mm CLR
06:45 15.2 °C 13.7 °C 1019.9 hPa Calm     91% 0 mm CLR
06:50 15.1 °C 13.7 °C 1019.9 hPa Calm     91% 0 mm CLR
06:55 15.1 °C 13.7 °C 1019.9 hPa Calm     91% 0 mm CLR
07:00 15.1 °C 13.6 °C 1019.9 hPa Calm     91% 0 mm CLR
07:10 15.1 °C 13.6 °C 1019.9 hPa Calm     91% 0 mm CLR
07:20 15.1 °C 13.8 °C 1020.2 hPa Calm     92% 0 mm FEW
07:25 15.1 °C 13.8 °C 1020.2 hPa Calm     92% 0 mm FEW
07:30 15.1 °C 13.8 °C 1020.2 hPa Calm     92% 0 mm FEW
07:35 15.1 °C 13.8 °C 1020.2 hPa Calm     92% 0 mm FEW
07:40 15 °C 13.7 °C 1020.2 hPa Calm     92% 0 mm FEW
07:45 15 °C 13.7 °C 1020.2 hPa Calm     92% 0 mm FEW
07:50 15.1 °C 13.8 °C 1020.5 hPa Calm     92% 0 mm FEW
07:55 15.2 °C 13.9 °C 1020.5 hPa Calm     92% 0 mm FEW
08:00 15.3 °C 14 °C 1020.5 hPa Calm     92% 0 mm FEW
08:10 15.6 °C 14.3 °C 1020.5 hPa Calm     92% 0 mm FEW
08:15 15.7 °C 14.4 °C 1020.5 hPa Calm     92% 0 mm FEW
08:20 16 °C 14.7 °C 1020.5 hPa Calm     92% 0 mm FEW
08:25 16.2 °C 14.9 °C 1020.5 hPa Calm     92% 0 mm FEW
08:30 16.5 °C 15 °C 1020.5 hPa Calm     91% 0 mm FEW
08:40 16.9 °C 15.3 °C 1020.5 hPa Calm     90% 0 mm FEW
08:45 17.1 °C 15.4 °C 1020.5 hPa Calm     90% 0 mm FEW
08:50 17.2 °C 15.6 °C 1020.5 hPa Calm     90% 0 mm FEW
08:55 17.4 °C 15.7 °C 1020.5 hPa Calm     90% 0 mm FEW
09:00 17.6 °C 15.9 °C 1020.5 hPa Calm     90% 0 mm FEW
09:10 17.9 °C 15.9 °C 1020.5 hPa Calm   1.6 km/h 88% 0 mm FEW
09:15 18.2 °C 16 °C 1020.5 hPa Calm     87% 0 mm FEW
09:20 18.4 °C 15.9 °C 1020.5 hPa Calm   1.6 km/h 85% 0 mm SCT
09:25 18.7 °C 15.9 °C 1020.9 hPa Calm   1.6 km/h 84% 0 mm SCT
09:30 18.9 °C 15.9 °C 1020.5 hPa Calm     83% 0 mm SCT
09:35 19.1 °C 15.9 °C 1020.9 hPa Calm   1.6 km/h 82% 0 mm SCT
09:40 19.4 °C 15.9 °C 1020.9 hPa Calm   1.6 km/h 80% 0 mm SCT
09:45 19.8 °C 16.3 °C 1020.9 hPa Calm     80% 0 mm SCT
09:50 20.2 °C 16.4 °C 1020.9 hPa Calm   1.6 km/h 79% 0 mm SCT
09:55 20.4 °C 16.4 °C 1020.9 hPa Calm   1.6 km/h 78% 0 mm SCT
10:00 20.8 °C 16.4 °C 1021.2 hPa Calm   1.6 km/h 76% 0 mm SCT
10:10 21.2 °C 16.4 °C 1020.9 hPa Calm   1.6 km/h 74% 0 mm SCT
10:15 21.4 °C 16.6 °C 1020.9 hPa Calm   4.8 km/h 74% 0 mm SCT
10:20 21.5 °C 16.4 °C 1021.2 hPa Calm   1.6 km/h 73% 0 mm SCT
10:25 21.7 °C 16.8 °C 1021.2 hPa Calm   1.6 km/h 74% 0 mm SCT
10:30 21.9 °C 16.9 °C 1021.2 hPa Calm   3.2 km/h 73% 0 mm SCT
10:35 22.1 °C 16.6 °C 1021.2 hPa Calm   1.6 km/h 71% 0 mm SCT
10:40 22.2 °C 16.5 °C 1021.2 hPa Calm     70% 0 mm SCT
10:45 22.5 °C 16.6 °C 1021.2 hPa Calm   3.2 km/h 69% 0 mm SCT
10:50 22.8 °C 17 °C 1021.2 hPa Calm   4.8 km/h 70% 0 mm SCT
10:55 23.1 °C 16.8 °C 1021.2 hPa South 1.6 km/h 3.2 km/h 68% 0 mm SCT
11:00 23.2 °C 16.8 °C 1021.2 hPa Calm   3.2 km/h 67% 0 mm SCT
11:05 23.4 °C 16.9 °C 1021.2 hPa Calm   4.8 km/h 67% 0 mm SCT
11:10 23.5 °C 17 °C 1021.2 hPa Calm   3.2 km/h 67% 0 mm SCT
11:15 23.5 °C 17 °C 1021.2 hPa Calm   1.6 km/h 67% 0 mm SCT
11:20 23.5 °C 17.2 °C 1021.2 hPa Calm   3.2 km/h 68% 0 mm SCT
11:25 23.8 °C 17.5 °C 1021.2 hPa Calm   3.2 km/h 68% 0 mm SCT
11:30 24 °C 17 °C 1021.2 hPa WSW 1.6 km/h 8 km/h 65% 0 mm SCT
11:40 24.2 °C 16.7 °C 1021.2 hPa West 1.6 km/h 8 km/h 63% 0 mm SCT
11:45 24.2 °C 16.7 °C 1021.2 hPa SW 1.6 km/h 8 km/h 63% 0 mm SCT
11:50 24.3 °C 16.6 °C 1021.2 hPa WSW 1.6 km/h 8 km/h 62% 0 mm SCT
11:55 24.4 °C 17.4 °C 1021.2 hPa Calm   3.2 km/h 65% 0 mm SCT
12:00 24.6 °C 16.6 °C 1021.2 hPa SW 1.6 km/h 8 km/h 61% 0 mm SCT
12:10 24.9 °C 17.1 °C 1021.2 hPa Calm   8 km/h 62% 0 mm SCT
12:15 24.9 °C 16.8 °C 1021.2 hPa NW 1.6 km/h 3.2 km/h 61% 0 mm SCT
12:20 25.1 °C 17.1 °C 1021.2 hPa Calm   4.8 km/h 61% 0 mm SCT
12:25 25.3 °C 16.4 °C 1021.2 hPa Calm   8 km/h 58% 0 mm SCT
12:30 25.5 °C 17.2 °C 1021.2 hPa Calm   3.2 km/h 60% 0 mm SCT
12:35 25.8 °C 16.9 °C 1021.2 hPa NW 1.6 km/h 4.8 km/h 58% 0 mm SCT
12:40 26.3 °C 17.4 °C 1021.2 hPa Calm   3.2 km/h 58% 0 mm SCT
12:45 26.4 °C 16.3 °C 1021.2 hPa Calm   8 km/h 54% 0 mm SCT
12:50 26.3 °C 16 °C 1021.2 hPa SSW 1.6 km/h 8 km/h 53% 0 mm SCT
12:55 26.4 °C 16.4 °C 1021.2 hPa ESE 1.6 km/h 3.2 km/h 54% 0 mm SCT
13:00 26.8 °C 16.9 °C 1020.9 hPa WSW 1.6 km/h 8 km/h 55% 0 mm SCT
13:10 26.7 °C 16.3 °C 1020.9 hPa Calm   3.2 km/h 53% 0 mm SCT
13:15 26.6 °C 17.1 °C 1020.9 hPa Calm   4.8 km/h 56% 0 mm SCT
13:20 26.6 °C 16.5 °C 1020.9 hPa WSW 1.6 km/h 3.2 km/h 54% 0 mm BKN
13:25 26.6 °C 16.8 °C 1020.9 hPa Calm   1.6 km/h 55% 0 mm BKN
13:30 26.7 °C 17.8 °C 1020.9 hPa Calm   1.6 km/h 58% 0 mm BKN
13:35 27 °C 17.5 °C 1020.9 hPa West 1.6 km/h 3.2 km/h 56% 0 mm BKN
13:40 26.8 °C 17.1 °C 1020.9 hPa Calm   1.6 km/h 55% 0 mm BKN
13:45 26.8 °C 17.1 °C 1020.5 hPa Calm   3.2 km/h 55% 0 mm BKN
13:50 27.1 °C 16.7 °C 1020.5 hPa West 1.6 km/h 3.2 km/h 53% 0 mm BKN
13:55 26.8 °C 16.7 °C 1020.5 hPa Calm   4.8 km/h 54% 0 mm BKN
14:00 26.7 °C 16.7 °C 1020.5 hPa Calm   1.6 km/h 54% 0 mm BKN
14:05 26.8 °C 17.3 °C 1020.5 hPa Calm   4.8 km/h 56% 0 mm BKN
14:10 26.8 °C 16.4 °C 1020.5 hPa ENE 1.6 km/h 3.2 km/h 53% 0 mm BKN
14:15 26.7 °C 16.3 °C 1020.5 hPa ESE 1.6 km/h 3.2 km/h 53% 0 mm BKN
14:20 26.6 °C 16.8 °C 1020.2 hPa SE 1.6 km/h 8 km/h 55% 0 mm BKN
14:25 26.7 °C 16.7 °C 1020.2 hPa Calm   4.8 km/h 54% 0 mm BKN
14:30 26.9 °C 16.6 °C 1020.2 hPa West 1.6 km/h 4.8 km/h 53% 0 mm BKN
14:35 27.1 °C 16.7 °C 1020.2 hPa WNW 1.6 km/h 3.2 km/h 53% 0 mm BKN
14:40 27 °C 16 °C 1020.2 hPa Calm   8 km/h 51% 0 mm BKN
14:45 26.8 °C 16.4 °C 1020.2 hPa Calm   8 km/h 53% 0 mm BKN
14:50 26.8 °C 16.4 °C 1019.9 hPa Calm   1.6 km/h 53% 0 mm BKN
14:55 26.7 °C 15.1 °C 1019.9 hPa West 3.2 km/h 8 km/h 49% 0 mm BKN
15:00 26.6 °C 15.6 °C 1019.9 hPa Calm   3.2 km/h 51% 0 mm BKN
15:10 26.6 °C 15.3 °C 1019.5 hPa West 1.6 km/h 3.2 km/h 50% 0 mm BKN
15:15 26.5 °C 15.6 °C 1019.5 hPa Calm   4.8 km/h 51% 0 mm BKN
15:20 26.4 °C 15.2 °C 1019.5 hPa Calm   8 km/h 50% 0 mm SCT
15:30 26.4 °C 15.8 °C 1019.5 hPa Calm   3.2 km/h 52% 0 mm SCT
15:35 26.4 °C 15.2 °C 1019.2 hPa Calm   4.8 km/h 50% 0 mm SCT
15:40 26.4 °C 14.5 °C 1019.5 hPa Calm   8 km/h 48% 0 mm SCT
15:45 26.4 °C 14.5 °C 1019.2 hPa Calm   3.2 km/h 48% 0 mm SCT
15:50 26.4 °C 14.2 °C 1019.2 hPa NNW 1.6 km/h 4.8 km/h 47% 0 mm SCT
15:55 26.3 °C 14.4 °C 1019.2 hPa Calm   1.6 km/h 48% 0 mm SCT
16:00 26.3 °C 14.4 °C 1019.2 hPa Calm   4.8 km/h 48% 0 mm SCT
16:05 26.3 °C 14.4 °C 1019.2 hPa Calm   3.2 km/h 48% 0 mm SCT
16:10 26.3 °C 14.1 °C 1019.2 hPa WSW 1.6 km/h 8 km/h 47% 0 mm SCT
16:15 26.3 °C 13.7 °C 1019.2 hPa Calm   4.8 km/h 46% 0 mm SCT
16:20 26.2 °C 14.7 °C 1019.2 hPa SW 1.6 km/h 3.2 km/h 49% 0 mm SCT
16:25 26.3 °C 14.4 °C 1019.2 hPa Calm   3.2 km/h 48% 0 mm SCT
16:30 26.3 °C 14.4 °C 1018.8 hPa Calm   3.2 km/h 48% 0 mm SCT
16:40 26.3 °C 14.4 °C 1018.8 hPa Calm   1.6 km/h 48% 0 mm SCT
16:45 26.3 °C 13.7 °C 1018.8 hPa WSW 1.6 km/h 3.2 km/h 46% 0 mm SCT
16:50 26.3 °C 14.7 °C 1018.8 hPa Calm   1.6 km/h 49% 0 mm SCT
16:55 26.4 °C 13.8 °C 1018.8 hPa Calm   3.2 km/h 46% 0 mm SCT
17:00 26.5 °C 14.3 °C 1018.8 hPa Calm   1.6 km/h 47% 0 mm SCT
17:10 26.4 °C 14.6 °C 1018.8 hPa Calm   1.6 km/h 48% 0 mm SCT
17:15 26.4 °C 14.8 °C 1018.8 hPa Calm     49% 0 mm SCT
17:20 26.4 °C 14.5 °C 1018.8 hPa Calm   3.2 km/h 48% 0 mm FEW
17:25 26.4 °C 15.4 °C 1018.8 hPa Calm   3.2 km/h 51% 0 mm FEW
17:30 26.3 °C 14.4 °C 1018.8 hPa Calm   3.2 km/h 48% 0 mm FEW
17:35 26.2 °C 15 °C 1018.8 hPa Calm   1.6 km/h 50% 0 mm FEW
17:40 26.2 °C 15.6 °C 1018.8 hPa Calm   1.6 km/h 52% 0 mm FEW
17:50 25.9 °C 14.7 °C 1018.8 hPa Calm   4.8 km/h 50% 0 mm FEW
17:55 25.9 °C 14.7 °C 1018.8 hPa Calm   1.6 km/h 50% 0 mm FEW
18:00 25.8 °C 15.2 °C 1018.8 hPa Calm     52% 0 mm FEW
18:05 25.7 °C 15.4 °C 1018.8 hPa Calm     53% 0 mm FEW
18:10 25.5 °C 15.8 °C 1018.8 hPa Calm     55% 0 mm FEW
18:15 25.2 °C 15.6 °C 1018.8 hPa Calm     55% 0 mm FEW
18:20 25.1 °C 15.7 °C 1018.8 hPa Calm     56% 0 mm FEW
18:25 24.9 °C 15.6 °C 1018.8 hPa Calm     56% 0 mm FEW
18:30 24.9 °C 15.8 °C 1018.8 hPa Calm     57% 0 mm FEW
18:40 24.8 °C 16 °C 1018.8 hPa Calm   1.6 km/h 58% 0 mm FEW
18:45 24.7 °C 15.6 °C 1018.8 hPa Calm     57% 0 mm FEW
18:50 24.6 °C 16 °C 1018.8 hPa Calm     59% 0 mm FEW
18:55 24.4 °C 16.1 °C 1018.8 hPa Calm     60% 0 mm FEW
19:00 24.2 °C 15.9 °C 1018.8 hPa Calm   1.6 km/h 60% 0 mm FEW
19:05 24.1 °C 15.6 °C 1018.8 hPa Calm   1.6 km/h 59% 0 mm FEW
19:10 23.9 °C 15.9 °C 1018.8 hPa Calm   1.6 km/h 61% 0 mm FEW
19:15 23.7 °C 16 °C 1018.8 hPa Calm   1.6 km/h 62% 0 mm FEW
19:20 23.6 °C 16.1 °C 1018.8 hPa Calm     63% 0 mm FEW
19:25 23.4 °C 15.9 °C 1018.8 hPa Calm     63% 0 mm FEW
19:30 23.3 °C 15.8 °C 1018.8 hPa Calm   1.6 km/h 63% 0 mm FEW
19:35 23.2 °C 16 °C 1018.8 hPa Calm   1.6 km/h 64% 0 mm FEW
19:40 23.1 °C 16.2 °C 1018.8 hPa Calm   1.6 km/h 65% 0 mm FEW
19:45 23.1 °C 16.1 °C 1018.8 hPa Calm   1.6 km/h 65% 0 mm FEW
19:50 23 °C 15.8 °C 1018.8 hPa Calm   1.6 km/h 64% 0 mm FEW
19:55 22.9 °C 16 °C 1018.8 hPa Calm   1.6 km/h 65% 0 mm FEW
20:00 22.8 °C 16.2 °C 1018.8 hPa Calm     66% 0 mm FEW
20:05 22.8 °C 16.3 °C 1018.8 hPa Calm     67% 0 mm FEW
20:10 22.7 °C 16 °C 1018.8 hPa Calm     66% 0 mm FEW
20:15 22.6 °C 16.3 °C 1018.8 hPa Calm     68% 0 mm FEW
20:20 22.4 °C 16.4 °C 1018.8 hPa Calm     69% 0 mm SCT
20:25 22.2 °C 16.5 °C 1018.8 hPa Calm     70% 0 mm SCT
20:30 22 °C 16.1 °C 1018.8 hPa Calm     69% 0 mm SCT
20:35 21.8 °C 16.1 °C 1018.8 hPa Calm     70% 0 mm SCT
20:40 21.7 °C 16.2 °C 1018.8 hPa Calm     71% 0 mm SCT
20:45 21.5 °C 15.8 °C 1018.8 hPa Calm     70% 0 mm SCT
20:50 21.4 °C 15.9 °C 1018.8 hPa Calm     71% 0 mm SCT
20:55 21.2 °C 15.9 °C 1018.8 hPa Calm     72% 0 mm SCT
21:00 21.1 °C 16.1 °C 1018.8 hPa Calm     73% 0 mm SCT
21:10 20.8 °C 16 °C 1019.2 hPa Calm     74% 0 mm SCT
21:15 20.7 °C 15.9 °C 1019.2 hPa Calm     74% 0 mm SCT
21:20 20.6 °C 15.9 °C 1019.2 hPa Calm     75% 0 mm FEW
21:25 20.4 °C 15.6 °C 1019.2 hPa Calm     74% 0 mm FEW
21:30 20.2 °C 15.4 °C 1019.2 hPa Calm     74% 0 mm FEW
21:40 20 °C 15.7 °C 1019.5 hPa Calm     76% 0 mm FEW
21:45 19.8 °C 15.5 °C 1019.5 hPa Calm     76% 0 mm FEW
21:50 19.7 °C 15.7 °C 1019.5 hPa Calm     78% 0 mm FEW
21:55 19.6 °C 15.8 °C 1019.5 hPa Calm     79% 0 mm FEW
22:00 19.4 °C 15.7 °C 1019.5 hPa Calm     79% 0 mm FEW
22:05 19.3 °C 15.6 °C 1019.5 hPa Calm     79% 0 mm FEW
22:10 19.2 °C 15.7 °C 1019.5 hPa Calm     80% 0 mm FEW
22:15 19.1 °C 15.7 °C 1019.5 hPa Calm     81% 0 mm FEW
22:20 18.9 °C 15.8 °C 1019.5 hPa Calm     82% 0 mm CLR
22:25 18.9 °C 15.7 °C 1019.9 hPa Calm     82% 0 mm CLR
22:30 18.8 °C 15.8 °C 1019.9 hPa Calm     83% 0 mm CLR
22:40 18.6 °C 15.7 °C 1019.9 hPa Calm     83% 0 mm CLR
22:45 18.5 °C 15.6 °C 1019.9 hPa Calm     83% 0 mm CLR
22:50 18.4 °C 15.7 °C 1019.9 hPa Calm     84% 0 mm CLR
22:55 18.4 °C 15.6 °C 1019.9 hPa Calm     84% 0 mm CLR
23:00 18.3 °C 15.6 °C 1019.9 hPa Calm     84% 0 mm CLR
23:05 18.2 °C 15.6 °C 1019.9 hPa Calm     85% 0 mm CLR
23:10 18.1 °C 15.6 °C 1019.9 hPa Calm     85% 0 mm CLR
23:20 18 °C 15.4 °C 1019.9 hPa Calm     85% 0 mm CLR
23:25 18 °C 15.4 °C 1019.9 hPa Calm     85% 0 mm CLR
23:30 17.9 °C 15.2 °C 1019.9 hPa Calm     84% 0 mm CLR
23:40 17.8 °C 15.3 °C 1019.9 hPa Calm     85% 0 mm CLR
23:45 17.8 °C 15.3 °C 1019.9 hPa Calm     85% 0 mm CLR
23:50 17.8 °C 15.2 °C 1019.9 hPa Calm     85% 0 mm CLR
23:55 17.7 °C 15.2 °C 1019.9 hPa Calm     85% 0 mm CLR
Piedmont Bend
Compliments of Weather Underground - 2 mb